TimeHST,TemperatureF,Dew PointF,Humidity,Sea Level PressureIn,VisibilityMPH,Wind Direction,Wind SpeedMPH,Gust SpeedMPH,PrecipitationIn,Events,Conditions,WindDirDegrees,DateUTC
12:19 AM,73.4,69.8,88,30.09,10.0,NE,15.0,20.7,0.00,,Overcast,50,2013-06-22 10:19:00
12:53 AM,73.9,70.0,87,30.08,10.0,NE,11.5,-,0.00,,Overcast,50,2013-06-22 10:53:00
1:13 AM,75.2,71.6,89,30.08,10.0,ENE,12.7,-,N/A,,Overcast,60,2013-06-22 11:13:00
1:53 AM,75.0,68.0,79,30.06,10.0,East,18.4,-,N/A,,Overcast,80,2013-06-22 11:53:00
2:53 AM,75.0,68.0,79,30.05,10.0,ENE,18.4,-,N/A,,Overcast,70,2013-06-22 12:53:00
3:53 AM,75.0,66.0,73,30.05,10.0,ENE,18.4,-,N/A,,Overcast,70,2013-06-22 13:53:00
4:53 AM,75.0,66.9,76,30.05,10.0,ENE,18.4,-,N/A,,Overcast,70,2013-06-22 14:53:00
5:53 AM,75.0,66.9,76,30.07,10.0,ENE,15.0,-,N/A,,Overcast,60,2013-06-22 15:53:00
6:53 AM,75.9,66.9,74,30.08,10.0,ENE,19.6,-,N/A,,Mostly Cloudy,60,2013-06-22 16:53:00
7:53 AM,78.1,66.9,68,30.09,10.0,ENE,18.4,-,N/A,,Partly Cloudy,60,2013-06-22 17:53:00
8:53 AM,80.1,66.0,62,30.10,10.0,ENE,16.1,-,N/A,,Scattered Clouds,60,2013-06-22 18:53:00
9:53 AM,81.0,68.0,65,30.11,10.0,NE,17.3,-,N/A,,Mostly Cloudy,50,2013-06-22 19:53:00
10:53 AM,75.0,70.0,84,30.12,8.0,ENE,12.7,-,0.01,Rain,Light Rain,60,2013-06-22 20:53:00
11:53 AM,82.0,68.0,62,30.11,10.0,ENE,18.4,-,0.00,,Mostly Cloudy,60,2013-06-22 21:53:00
12:53 PM,79.0,68.0,69,30.11,10.0,NE,13.8,-,0.00,,Overcast,50,2013-06-22 22:53:00
1:53 PM,80.1,69.1,69,30.09,10.0,ENE,20.7,26.5,N/A,,Overcast,60,2013-06-22 23:53:00
2:23 PM,78.8,69.8,74,30.10,10.0,NE,17.3,-,0.00,,Overcast,50,2013-06-23 00:23:00
2:37 PM,75.2,71.6,89,30.10,10.0,NE,16.1,-,0.01,Rain,Light Rain,50,2013-06-23 00:37:00
2:53 PM,78.1,72.0,81,30.08,10.0,NE,16.1,-,0.01,,Mostly Cloudy,50,2013-06-23 00:53:00
3:53 PM,81.0,68.0,65,30.08,10.0,ENE,17.3,-,N/A,,Partly Cloudy,60,2013-06-23 01:53:00
4:53 PM,80.1,68.0,67,30.07,10.0,ENE,16.1,-,N/A,,Scattered Clouds,60,2013-06-23 02:53:00
5:53 PM,75.0,68.0,79,30.09,10.0,ENE,19.6,-,0.00,,Scattered Clouds,60,2013-06-23 03:53:00
6:53 PM,75.0,68.0,79,30.11,10.0,NE,18.4,-,N/A,,Clear,50,2013-06-23 04:53:00
7:53 PM,75.0,68.0,79,30.12,10.0,NE,19.6,-,N/A,,Scattered Clouds,50,2013-06-23 05:53:00
8:36 PM,75.2,69.8,83,30.14,10.0,NE,18.4,-,N/A,,Mostly Cloudy,40,2013-06-23 06:36:00
8:53 PM,75.0,69.1,82,30.14,10.0,NE,17.3,-,N/A,,Scattered Clouds,50,2013-06-23 06:53:00
9:07 PM,75.2,69.8,83,30.15,10.0,NE,18.4,-,N/A,,Mostly Cloudy,40,2013-06-23 07:07:00
9:53 PM,75.0,69.1,82,30.15,10.0,NE,19.6,-,N/A,,Overcast,50,2013-06-23 07:53:00
10:07 PM,73.4,69.8,88,30.16,10.0,NE,19.6,-,N/A,,Overcast,50,2013-06-23 08:07:00
10:53 PM,73.9,70.0,87,30.16,10.0,NE,16.1,-,0.00,,Overcast,50,2013-06-23 08:53:00
11:37 PM,75.2,69.8,83,30.16,10.0,ENE,17.3,-,0.00,,Mostly Cloudy,60,2013-06-23 09:37:00
11:48 PM,73.4,69.8,88,30.16,10.0,NE,17.3,-,0.00,,Mostly Cloudy,50,2013-06-23 09:48:00
11:53 PM,73.9,69.1,85,30.15,10.0,NE,17.3,-,0.00,,Mostly Cloudy,50,2013-06-23 09:53:00